www.pogodaiklimat.ru
Время
и дата
09:54 21.09
10:54 21.09
11:54 21.09
12:54 21.09
13:54 21.09
14:54 21.09
15:54 21.09
16:54 21.09
17:54 21.09
18:54 21.09
19:54 21.09
20:54 21.09
21:37 21.09
21:54 21.09
22:54 21.09
23:35 21.09
23:54 21.09
00:05 22.09
00:54 22.09
01:54 22.09
02:54 22.09
03:54 22.09
04:54 22.09
05:54 22.09
06:54 22.09
07:54 22.09
08:54 22.09
09:54 22.09
10:54 22.09
11:54 22.09
12:54 22.09
13:54 22.09
14:54 22.09
15:54 22.09
16:54 22.09
17:54 22.09
18:54 22.09
19:54 22.09
20:54 22.09
21:54 22.09
22:26 22.09
22:54 22.09
23:28 22.09
23:54 22.09
00:54 23.09
01:54 23.09
02:54 23.09
03:54 23.09
Ветер
(напр.,м/с)
Видим. Явления Облачность Т
(С)
Тd
(С)
f
(%)
Тe
(С)
Тes
(С)
Комфортность P
(гПа)
Po
(гПа)
Тmin
(С)
Tmax
(С)
R
(мм)
R24
(мм)
S
(см)
В 1 16 км 8/5 750 м
[Ci]
+23.3 +17.2 69 +29 +31 душно 1026.7 1026.4
В 1 16 км 8/8 900 м
[Ci]
+25.0 +17.2 62 +29 +31 душно 1026.5 1026.4
В 1 16 км 8/8 1080 м
[Ci]
+25.6 +16.7 58 +29 +31 душно 1026.1 1025.7
В 1 16 км 8/8 1170 м
[Ci]
+26.1 +17.2 58 +30 +32 душно 1025.4 1025.0 +18.3 +27.2
ЮВ 1 16 км 8/5 1230 м
[Ac Ci]
+27.2 +17.2 54 +31 +35 душно 1024.9 1024.7
ЮВ 2 16 км 8/5 1290 м
[Ac Ci]
+27.8 +17.2 52 +32 +34 душно 1024.2 1024.0
ЮВ 2 16 км 8/8 1200 м
[Ci]
+25.6 +17.8 62 +30 +31 душно 1024.1 1024.0
ЮВ 1 16 км 8/5 1200 м
[Ci]
+26.1 +17.8 60 +30 +31 душно 1023.9 1023.7
ЮВ 1 16 км 8/5 1050 м
[Ci]
+23.9 +17.2 66 +28 +28 душно 1023.8 1023.7
В 1 16 км 8/5 1050 м
[Ci]
+22.8 +17.8 73 +28 +28 душно 1023.8 1023.7 +22.8 +28.3
В 2 16 км 8/5 1650 м
[Ac Ci]
+22.8 +19.4 81 +29 +29 очень
душно
1023.7 1023.3
В 1 16 км 5/2 1650 м
[Ac Ci]
+21.7 +19.4 87 +27 +27 душно 1023.3 1023.0
В 1 16 км 10/8 270 м
[Ci]
+21.1 +19.4 90 +26 +26 душно 1023.0
В 1 16 км 10/8 270 м
[Ci]
+21.1 +19.4 90 +26 +26 душно 1023.2 1023.0
В 1 16 км 10/5 240 м
[Ci]
+21.1 +20.0 93 +26 +26 душно 1022.8 1022.7
В 1 16 км 10/8 210 м
[Ci]
+21.1 +20.0 93 +26 +26 душно 1022.3
В 1 16 км 10/8 210 м
[Ci]
+21.1 +20.0 93 +26 +26 душно 1022.4 1022.0
В 1 16 км 10/8 180 м
[Ci]
+21.1 +20.0 93 +26 +26 душно 1022.0
В 1 16 км 10/5 180 м
[Ci]
+21.1 +20.0 93 +26 +26 душно 1021.6 1021.3 +20.6 +22.8
В 1 16 км 10/2 180 м
[Ci]
+20.6 +20.0 96 +26 +26 душно 1021.1 1021.0
В 1 16 км 10/8 180 м
[Ci]
+21.1 +20.0 93 +26 +26 душно 1020.3 1020.0
ЮВ 1 16 км 10/8 150 м
[Ci]
+21.7 +20.6 93 +27 +27 душно 1020.0 1019.6
В 1 16 км 8/8 150 м
[Ci]
+21.7 +20.6 93 +27 +27 душно 1019.7 1019.6
В 1 16 км 8/8 150 м
[Ci]
+21.7 +21.1 96 +28 +28 душно 1019.6 1019.3
ЮВ 2 16 км 10/5 210 м
[Ac]
+22.8 +21.1 90 +30 +30 очень
душно
1019.4 1019.3 +20.6 +22.8
ЮВ 2 16 км 8/2 240 м
[Ac Ci]
+23.9 +21.1 84 +30 +30 очень
душно
1019.2 1018.9
ЮВ 2 16 км 8/2 420 м
[Ac Ci]
+25.6 +21.1 76 +32 +33 очень
душно
1018.8 1018.6
ЮВ 2 16 км 8/5 600 м
[Ac Ci]
+26.7 +21.1 71 +34 +35 очень
душно
1018.2 1017.9
Ю 3 16 км 8/5 840 м
[Ac Ci]
+27.2 +20.0 65 +33 +35 очень
душно
1017.4 1017.3
ЮВ 3
{4}
16 км 8/5 990 м
[Ac Ci]
+27.8 +18.9 58 +33 +34 очень
душно
1016.7 1016.6
Ю 4
{5}
16 км 8/5 1050 м
[Ac Ci]
+28.9 +20.0 59 +35 +36 очень
душно
1015.5 1015.2 +22.8 +28.9
ЮВ 4
{5}
16 км 8/5 1050 м
[Ac Ci]
+28.3 +20.0 61 +35 +35 очень
душно
1014.5 1014.2
Ю 2 16 км 8/5 900 м
[Ac Ci]
+27.2 +20.0 65 +33 +35 очень
душно
1014.3 1014.2
Ю 2 16 км 10/5 900 м
[Ac Ci]
+27.2 +20.6 67 +34 +35 очень
душно
1014.0 1013.9
Ю 3
{5}
16 км 8/2 870 м
[Ac Ci]
+26.1 +20.6 72 +33 +33 очень
душно
1014.2 1013.9
Ю 3
{5}
16 км 10/5 810 м
[Ac Ci]
+25.6 +20.0 71 +31 +31 очень
душно
1014.1 1013.9
ЮВ 2
{4}
16 км 8/2 810 м
[Ac Ci]
+24.4 +20.0 76 +30 +30 очень
душно
1013.9 1013.5 +24.4 +28.9
ЮВ 3 16 км 8/0 7500 м
[Ci]
+23.9 +20.0 79 +29 +29 душно 1014.1 1013.9
ЮВ 2 16 км 8/2 900 м
[Ci]
+23.3 +20.6 85 +31 +31 очень
душно
1013.9 1013.5
ЮВ 2 16 км 8/2 360 м
[Ac Ci]
+23.3 +21.1 87 +31 +31 очень
душно
1013.7 1013.5
ЮВ 1 16 км 10/8 780 м
[Ac Ci]
+23.3 +21.1 87 +31 +31 очень
душно
1013.5
ЮВ 2 16 км 10/10 720 м +23.3 +21.1 87 +31 +31 очень
душно
1013.8 1013.5
ЮВ 2 16 км 8/5 660 м
[Ci]
+23.9 +21.1 84 +30 +30 очень
душно
1013.5
ЮВ 2 16 км 8/5 810 м
[Ci]
+23.9 +20.6 82 +30 +30 очень
душно
1013.5 1013.2
ЮВ 2 16 км 10/2 1050 м
[Ac Ci]
+23.9 +20.6 82 +30 +30 очень
душно
1013.1 1012.9 +23.3 +24.4
ЮВ 3
{4}
16 км 10/8 1080 м
[Ci]
+23.9 +20.6 82 +30 +30 очень
душно
1012.2 1011.8
ЮВ 2 16 км 8/5 930 м
[Ci]
+23.9 +20.0 79 +29 +29 душно 1011.9 1011.8
ЮВ 3
{4}
16 км 10/5 840 м
[Ac Ci]
+23.3 +20.0 82 +30 +30 очень
душно
1011.2 1010.8
Местоположение метеостанции Philadelphia International Airport: широта 39.8733 долгота -75.2268 высота над уровнем моря 2 м.
В архиве по умолчанию представлена погода в Филадельфии за последние 1-2 суток. Обновление информации о фактической погоде в базе происходит ежечасно! Архивные данные за месяц целиком и за предыдущие месяцы Вы можете получить, выбрав интересующий диапазон дат из раскрывающегося списка и нажав кнопку "Ввод!".
Внимание! Архив погоды МЕТАР в базе сайта по станциям, не включенным в климатический монитор, хранится не более 60 дней. Нет смысла пытаться выбрать более раннюю дату.
*Определитесь, кто Вы:
Внимание! Время в таблицах - местное (без учета летнего времени). Для получения всемирного времени необходимо вычесть поправку, которая равна -5 ч.
Смотрите также архив погоды в соседних городах и на ближайших метеорологических станциях:
Партнеры нашего сайта:      
Пояснения к столбцам:
  • Ветер - указаны скорость ветра в м/с - средняя за 10 мин, порывы в срок и между сроками (в фигурных скобках) и направление, откуда дует ветер: С - северный,
  • СВ - северо-восточный, В - восточный, ЮВ - юго-восточный, Ю - южный, ЮЗ - юго-западный, З - западный, СЗ - северо-западный.
  • Видимость - горизонтальная дальность видимости в метрах или километрах. При видимости от 1 до 10 км при отсутствии осадков обычно наблюдается дымка, при ухудшении видимости до 1 км и менее - туман. В сухую погоду видимость может ухудшаться дымом, пылью или мглою.
  • Явления - указаны атмосферные явления, наблюдавшиеся в срок или в последний час перед сроком; фигурными скобками обозначены явления, наблюдавшиеся между сроками (за 1-3 часа до срока); квадратными скобками обозначены град или гололедные отложения с указанием их диаметра в мм.
  • Облачность - указаны через наклонную черту общая и нижняя облачность в баллах и высота нижней границы облаков в метрах; квадратными скобками обозначены формы облаков: Ci - перистые, Cs - перисто-слоистые, Cc - перисто-кучевые, Ac - высококучевые, As - высокослоистые, Sc - слоисто-кучевые, Ns - слоисто-дождевые, Cu - кучевые, Cb - кучево-дождевые. Подробнее классификацию облаков см. в Атласе облаков (PDF).
  • T - Температура воздуха - температура, измеренная на высоте 2 м над землей.
  • Td - Температура точки росы - температура, при понижении до которой содержащийся в воздухе водяной пар достигнет насыщения.
  • f - Относительная влажность воздуха - влажноcть воздуха, измеренная на высоте 2 м над землей.
  • Te - Эффективная температура - температура, которую ощущает одетый по сезону человек в тени. Характеристика душности погоды. При расчете учитывается влияние влажности воздуха и скорости ветра на теплоощущения человека.
  • Tes - Эффективная температура на солнце - температура, которую ощущает человек, с поправкой на солнечный нагрев. Характеристика знойности погоды. Зависит от высоты солнца над горизонтом, облачности и скорости ветра. Ночью, в пасмурную погоду, а также при ветре 12 м/с и более поправка равна нулю.
  • P - Атмосферное давление - приведенное к уровню моря атмосферное давление.
  • Po - Атмосферное давление - измеренное на уровне метеостанции атмосферное давление.
  • Tmin - Минимальная температура - минимум температуры воздуха на высоте 2 м над землей.
  • Tmax - Максимальная температура - максимум температуры воздуха на высоте 2 м над землей.
  • R - Количество осадков - Количество выпавших осадков за период времени, мм. При наведении курсора мыши на число - период времени, за который выпало указанное количество осадков.
  • R24 - Количество осадков - Количество выпавших осадков за 24 часа, мм.
  • S - Снежный покров - Высота снежного покрова, см. При наведении курсора мыши на число - состояние снежного покрова и степень покрытия местности в баллах.